7 * 24
多渠道服务支持
STARLINK-1333是美国SpaceX公司星链(Starlink)低轨卫星互联网项目的一员,于2020年4月22日发射升空,属于星链项目快速扩张阶段部署的卫星。星链项目旨在构建全球覆盖的低轨卫星通信网络,STARLINK-1333作为星座组网卫星,为全球偏远地区、海上及航空场景提供高速低延迟宽带接入服务,它和同期卫星一同推动了星链全球服务网络的初步成型,不过该卫星也引发了轨道安全与天文观测相关争议。
美国
(US)
| 数据来源 | 国际轨道数据 |
| 星历时间: | 2026-09-11T18:02:48+0800 16小时前 查看轨道信息 |
| 半长轴: | 6812.988km |
| 偏心率: | 0.0003401 |
| 轨道倾角: | 53.153° |
| 近地点辐角 | 44.332° |
| 升交点赤经 | 287.638° |
| 平近点角 | 315.796° |
| 近地点: | 432.533km |
| 远地点: | 437.169km |
| 周期: | 93.275分钟 |
| 每日圈数: | 15.438191 |